Weather History for KBTP - December, 2013

Change the Weather History Date:

Friday, December 20, 2013

  Actual Average Record
Temperature  
Mean Temperature 48 °F -  
Max Temperature 53 °F 34 °F 57 °F (1970)
Min Temperature 42 °F 21 °F -1 °F (1980)
Degree Days  
Heating Degree Days 18    
Moisture  
Dew Point 36 °F    
Average Humidity 67    
Maximum Humidity 88    
Minimum Humidity 46    
Precipitation  
Precipitation 0.03 in - - ()
Sea Level Pressure  
Sea Level Pressure 29.94 in    
Wind  
Wind Speed 9 mph (SSW)    
Max Wind Speed 15 mph    
Max Gust Speed 24 mph    
Visibility 10 miles    
Events      
Averages and records for this station are not official NWS values.
T = Trace of Precipitation, MM = Missing Value Source: NWS Daily Summary

Daily Weather History Graph

Daily Weather History Graph

Search for Another Location

Airport or City:

Trip Planner

Search our weather history database for the weather conditions in past years. The results will help you decide how hot, cold, wet, or windy it might be!

Date:

Astronomy

Dec. 20, 2013 Rise Set
Actual Time 7:40 AM EST 4:55 PM EST
Civil Twilight 7:09 AM EST 5:26 PM EST
Nautical Twilight 6:34 AM EST 6:00 PM EST
Astronomical Twilight 6:01 AM EST 6:33 PM EST
Moon 8:15 PM EST (12/20) 9:32 AM EST (12/20)
Length of Visible Light 10h 16m
Length of Day
9h 14m
Waning Gibbous, 90% of the Moon is Illuminated
Dec 20
Waning Gibbous
Dec 25
Last Quarter
Jan 1
New
Jan 7
First Quarter
Jan 15
Full

Hourly Weather History & Observations

Time (EST) Temp. Windchill Dew Point Humidity Pressure Visibility Wind Dir Wind Speed Gust Speed Precip Events Conditions
12:15 AM 44.6 °F 40.7 °F 26.6 °F 49% 30.02 in 10.0 mi SSW 6.9 mph - N/A   Clear
12:35 AM 44.6 °F 39.7 °F 26.6 °F 49% 30.01 in 10.0 mi South 9.2 mph - N/A   Clear
12:55 AM 44.6 °F 40.7 °F 26.6 °F 49% 30.01 in 10.0 mi South 6.9 mph - N/A   Clear
1:15 AM 42.8 °F 38.0 °F 26.6 °F 53% 30.00 in 10.0 mi South 8.1 mph - N/A   Clear
1:35 AM 42.8 °F 38.6 °F 26.6 °F 53% 30.00 in 10.0 mi South 6.9 mph - N/A   Scattered Clouds
1:55 AM 42.8 °F 38.6 °F 26.6 °F 53% 30.00 in 10.0 mi South 6.9 mph - N/A   Overcast
2:15 AM 42.8 °F 38.0 °F 26.6 °F 53% 30.00 in 10.0 mi South 8.1 mph - N/A   Overcast
2:35 AM 42.8 °F 38.6 °F 26.6 °F 53% 30.00 in 10.0 mi South 6.9 mph - N/A   Overcast
2:55 AM 42.8 °F 38.0 °F 24.8 °F 49% 30.00 in 10.0 mi South 8.1 mph - N/A   Overcast
3:15 AM 44.6 °F 40.7 °F 24.8 °F 46% 30.00 in 10.0 mi SSW 6.9 mph - N/A   Overcast
3:35 AM 44.6 °F 41.4 °F 24.8 °F 46% 29.99 in 10.0 mi South 5.8 mph - N/A   Overcast
3:55 AM 44.6 °F 40.7 °F 24.8 °F 46% 29.99 in 10.0 mi South 6.9 mph - N/A   Overcast
4:15 AM 42.8 °F 38.6 °F 24.8 °F 49% 29.99 in 10.0 mi SSW 6.9 mph - N/A   Overcast
4:35 AM 42.8 °F 38.0 °F 24.8 °F 49% 29.99 in 10.0 mi SSW 8.1 mph - N/A   Overcast
4:55 AM 44.6 °F 40.2 °F 24.8 °F 46% 29.98 in 10.0 mi South 8.1 mph - N/A   Overcast
5:15 AM 44.6 °F 41.4 °F 24.8 °F 46% 29.98 in 10.0 mi SSW 5.8 mph - N/A   Overcast
5:35 AM 44.6 °F 40.2 °F 26.6 °F 49% 29.97 in 10.0 mi South 8.1 mph - N/A   Overcast
5:55 AM 44.6 °F 40.2 °F 26.6 °F 49% 29.96 in 10.0 mi South 8.1 mph - N/A   Mostly Cloudy
6:15 AM 44.6 °F 39.7 °F 26.6 °F 49% 29.96 in 10.0 mi South 9.2 mph - N/A   Overcast
6:35 AM 44.6 °F 39.7 °F 26.6 °F 49% 29.95 in 10.0 mi SSW 9.2 mph - N/A   Overcast
6:55 AM 46.4 °F 42.4 °F 26.6 °F 46% 29.95 in 10.0 mi South 8.1 mph - N/A   Overcast
7:15 AM 46.4 °F 42.4 °F 26.6 °F 46% 29.96 in 10.0 mi SSW 8.1 mph - N/A   Overcast
7:35 AM 46.4 °F 43.5 °F 28.4 °F 50% 29.96 in 10.0 mi SW 5.8 mph - N/A   Overcast
7:55 AM 46.4 °F 42.9 °F 28.4 °F 50% 29.96 in 10.0 mi SSW 6.9 mph - N/A   Overcast
8:15 AM 44.6 °F 40.7 °F 32.0 °F 61% 29.95 in 9.0 mi SSW 6.9 mph - N/A   Overcast
8:35 AM 44.6 °F 41.4 °F 33.8 °F 66% 29.96 in 10.0 mi SSW 5.8 mph - N/A   Overcast
8:55 AM 44.6 °F 40.7 °F 33.8 °F 66% 29.96 in 10.0 mi SSW 6.9 mph - 0.01 in   Overcast
9:15 AM 44.6 °F 40.7 °F 33.8 °F 66% 29.96 in 10.0 mi South 6.9 mph - N/A   Overcast
9:35 AM 44.6 °F 41.4 °F 33.8 °F 66% 29.95 in 10.0 mi South 5.8 mph - 0.01 in   Overcast
9:55 AM 44.6 °F 39.7 °F 33.8 °F 66% 29.96 in 10.0 mi SSW 9.2 mph - 0.01 in   Overcast
10:15 AM 46.4 °F 42.4 °F 33.8 °F 62% 29.96 in 10.0 mi SSW 8.1 mph - N/A   Overcast
10:35 AM 46.4 °F 41.5 °F 33.8 °F 62% 29.96 in 10.0 mi SSW 10.4 mph - N/A   Overcast
10:55 AM 46.4 °F 41.1 °F 35.6 °F 66% 29.96 in 10.0 mi SW 11.5 mph 18.4 mph 0.01 in   Overcast
11:15 AM 44.6 °F 40.2 °F 35.6 °F 71% 29.95 in 10.0 mi SSW 8.1 mph - N/A   Overcast
11:35 AM 46.4 °F 41.9 °F 35.6 °F 66% 29.95 in 10.0 mi SSW 9.2 mph - N/A   Overcast
11:55 AM 46.4 °F 41.5 °F 35.6 °F 66% 29.95 in 10.0 mi SSW 10.4 mph - N/A   Overcast
12:15 PM 46.4 °F 41.1 °F 37.4 °F 71% 29.94 in 10.0 mi SW 11.5 mph 17.3 mph N/A   Overcast
12:35 PM 46.4 °F 40.7 °F 37.4 °F 71% 29.93 in 10.0 mi SSW 12.7 mph 16.1 mph N/A   Overcast
12:55 PM 46.4 °F 42.4 °F 39.2 °F 76% 29.92 in 10.0 mi SW 8.1 mph 20.7 mph N/A   Overcast
1:15 PM 46.4 °F 41.9 °F 39.2 °F 76% 29.92 in 10.0 mi SSW 9.2 mph 16.1 mph N/A   Overcast
1:35 PM 46.4 °F 41.5 °F 39.2 °F 76% 29.92 in 10.0 mi SSW 10.4 mph - N/A   Overcast
1:55 PM 46.4 °F 41.9 °F 39.2 °F 76% 29.90 in 10.0 mi SSW 9.2 mph - N/A   Overcast
2:15 PM 48.2 °F - 39.2 °F 71% 29.90 in 10.0 mi SSW 9.2 mph - N/A   Overcast
2:35 PM 48.2 °F - 39.2 °F 71% 29.90 in 10.0 mi SSW 6.9 mph - N/A   Overcast
2:55 PM 48.2 °F - 41.0 °F 76% 29.90 in 10.0 mi SSW 10.4 mph 17.3 mph N/A   Overcast
3:15 PM 50.0 °F - 41.0 °F 71% 29.89 in 10.0 mi SSW 10.4 mph 18.4 mph N/A   Overcast
3:35 PM 50.0 °F - 41.0 °F 71% 29.90 in 10.0 mi SSW 13.8 mph 21.9 mph N/A   Overcast
3:55 PM 50.0 °F - 41.0 °F 71% 29.90 in 10.0 mi SSW 9.2 mph 17.3 mph N/A   Overcast
4:15 PM 50.0 °F - 41.0 °F 71% 29.90 in 10.0 mi SSW 10.4 mph - N/A   Overcast
4:35 PM 48.2 °F - 41.0 °F 76% 29.90 in 10.0 mi South 10.4 mph - N/A   Overcast
4:55 PM 48.2 °F - 42.8 °F 82% 29.90 in 10.0 mi SSW 10.4 mph - N/A   Overcast
5:15 PM 48.2 °F - 42.8 °F 82% 29.90 in 10.0 mi SSW 9.2 mph - N/A   Overcast
5:35 PM 50.0 °F - 42.8 °F 76% 29.90 in 10.0 mi SSW 9.2 mph 16.1 mph N/A   Overcast
5:55 PM 50.0 °F - 42.8 °F 76% 29.91 in 10.0 mi SSW 11.5 mph 17.3 mph N/A   Overcast
6:15 PM 48.2 °F - 44.6 °F 87% 29.90 in 10.0 mi SSW 9.2 mph 16.1 mph N/A   Overcast
6:35 PM 48.2 °F - 44.6 °F 87% 29.91 in 10.0 mi SSW 11.5 mph - N/A   Overcast
6:55 PM 50.0 °F - 44.6 °F 82% 29.91 in 10.0 mi SSW 10.4 mph 18.4 mph N/A   Overcast
7:15 PM 50.0 °F - 46.4 °F 87% 29.92 in 10.0 mi SSW 11.5 mph 18.4 mph N/A   Overcast
7:35 PM 50.0 °F - 46.4 °F 87% 29.92 in 9.0 mi SSW 12.7 mph 16.1 mph N/A   Overcast
7:55 PM 50.0 °F - 46.4 °F 87% 29.92 in 10.0 mi SSW 13.8 mph 24.2 mph N/A   Overcast
8:15 PM 51.8 °F - 46.4 °F 82% 29.92 in 10.0 mi SSW 15.0 mph 20.7 mph N/A   Overcast
8:35 PM 51.8 °F - 48.2 °F 88% 29.91 in 10.0 mi SSW 13.8 mph 20.7 mph N/A   Overcast
8:55 PM 51.8 °F - 48.2 °F 88% 29.91 in 10.0 mi SSW 13.8 mph 21.9 mph N/A   Overcast
9:15 PM 51.8 °F - 48.2 °F 88% 29.91 in 10.0 mi SSW 12.7 mph 19.6 mph N/A   Overcast
9:35 PM 51.8 °F - 48.2 °F 88% 29.92 in 10.0 mi SSW 11.5 mph 19.6 mph N/A   Overcast
9:55 PM 51.8 °F - 48.2 °F 88% 29.91 in 10.0 mi South 10.4 mph 17.3 mph N/A   Overcast
10:15 PM 51.8 °F - 46.4 °F 82% 29.91 in 10.0 mi SSW 10.4 mph 19.6 mph N/A   Overcast
10:35 PM 51.8 °F - 46.4 °F 82% 29.91 in 10.0 mi SSW 10.4 mph - N/A   Overcast
10:55 PM 51.8 °F - 46.4 °F 82% 29.90 in 10.0 mi SSW 9.2 mph 18.4 mph N/A   Overcast
11:15 PM 51.8 °F - 46.4 °F 82% 29.89 in 10.0 mi SSW 13.8 mph 18.4 mph N/A   Overcast
11:35 PM 53.6 °F - 46.4 °F 77% 29.89 in 10.0 mi SSW 10.4 mph 16.1 mph N/A   Overcast
11:55 PM 53.6 °F - 46.4 °F 77% 29.90 in 10.0 mi SSW 10.4 mph 17.3 mph N/A   Overcast